Regional Weather Roundup
Issued by NWS Kansas City/Pleasant Hill, MO

Home | Current Version | Previous Version | Graphics & Text | Print | Product List | Glossary Off
Versions: 1 2 3 4 5 6 7 8 9 10 11 12 13 14 15 16 17 18 19 20 21 22 23 24 25 26 27 28 29 30 31 32 33 34 35 36 37 38 39 40 41 42 43 44 45 46 47 48 49 50

000
ASUS43 KEAX 260310
RWREAX

WEATHER ROUNDUP FOR EASTERN KANSAS AND NORTHWEST MISSOURI
NATIONAL WEATHER SERVICE KANSAS CITY/PLEASANT HILL MO
1000 PM CDT SAT MAR 25 2017

KSZ040-057-103>105-MOZ028-029-037-043-260400-
...KANSAS CITY METROPOLITAN AREA...

CITY           SKY/WX    TMP DP  RH WIND       PRES   REMARKS
K.C. INTL      CLOUDY    45  44  97 NW7       29.89S
K.C. DOWNTOWN  CLOUDY    48  44  86 NW8       29.89R
LEES SUMMIT    CLOUDY    49  46  90 NW10      29.88S
OLATHE - IXD   CLOUDY    45  43  93 NW8       29.90S
OLATHE - OJC   CLOUDY    45  45 100 NW8       29.88S
LAWRENCE       CLOUDY    45  43  93 NW9       29.91F

$$

MOZ001>008-011>017-020>025-030>033-038>040-044>046-053-054-260400-
...NORTHERN AND CENTRAL MISSOURI...

CITY           SKY/WX    TMP DP  RH WIND       PRES   REMARKS
ST. JOSEPH     CLOUDY    44  44 100 NW9       29.91S
MOSBY            N/A     46  45  93 NW10      29.88S
WARRENSBURG    CLOUDY    50  46  87 W8        29.87R
WHITEMAN AFB   DRIZZLE   50  50 100 N7        29.85R
CLINTON        CLOUDY    48  48 100 SW8       29.87S FOG
SEDALIA        LGT RAIN  52 N/A N/A W8        29.86R
WARSAW         NOT AVBL
CHILLICOTHE      N/A     47  46  97 N5        29.88R
KIRKSVILLE     CLOUDY    48  48 100 N10       29.83S FOG

$$

MOZ041-047>049-056>058-063>065-088>090-097-260400-
...EASTERN AND SOUTHERN MISSOURI...

CITY           SKY/WX    TMP DP  RH WIND       PRES   REMARKS
ST. LOUIS INTL PTCLDY    57  53  86 S8        29.85R
SPIRIT OF STL  PTCLDY    56  53  90 SW9       29.83S
COLUMBIA       CLOUDY    52  52 100 SW10      29.83R
JEFFERSON CITY LGT RAIN  54  49  83 SW12      29.85R
ROLLA          CLOUDY    50  48  93 W17       29.86R
OSAGE BEACH    CLOUDY   N/A N/A N/A SW10      29.88S
SPRINGFIELD    CLOUDY    47  43  86 W8        29.90S
JOPLIN         CLOUDY    47  44  90 W10       29.93S
WEST PLAINS    CLOUDY    51  47  86 W6        29.91S

$$

IAZ060-094-KSZ022-034>040-054-083-096-NEZ052-066-093-260400-
...KANSAS...SOUTHEAST NEBRASKA AND IOWA...

CITY           SKY/WX    TMP DP  RH WIND       PRES   REMARKS
TOPEKA         CLOUDY    45  43  93 NW8       29.92S
MANHATTAN      CLOUDY    45  42  89 N3        29.94R
EMPORIA        CLOUDY    44  44 100 N7        29.91S
CHANUTE        CLOUDY    48  45  89 NW8       29.92S
WICHITA        CLOUDY    45  41  86 N7        29.93S
OMAHA          CLOUDY    42  37  82 N10       29.95R
LINCOLN        CLOUDY    41  39  93 N6        29.96S
FALLS CITY     CLOUDY    43  41  93 N7        29.92S
LAMONI         CLOUDY    42  41  96 N10       29.88S FOG
DES MOINES     CLOUDY    43  42  97 NE10      29.91S FOG

$$




USA.gov is the U.S. government's official web portal to all federal, state and local government web resources and services.